Year,Month,Day,Hour,Minute,Value (Times are PST for temperature in C)
2015,03,06,10,27,8.70
2015,03,06,10,28,8.70
2015,03,06,10,29,8.80
2015,03,06,10,30,8.90
2015,03,06,10,31,8.90
2015,03,06,10,32,9.00
2015,03,06,10,33,9.10
2015,03,06,10,34,9.10
2015,03,06,10,35,9.10
2015,03,06,10,36,9.20
2015,03,06,10,37,9.20
2015,03,06,10,38,9.30
2015,03,06,10,39,9.30
2015,03,06,10,40,9.40
2015,03,06,10,41,9.40
2015,03,06,10,42,9.50
2015,03,06,10,43,9.60
2015,03,06,10,44,9.60
2015,03,06,10,45,9.60
2015,03,06,10,46,9.70
2015,03,06,10,47,9.70
2015,03,06,10,48,9.80
2015,03,06,10,49,9.90
2015,03,06,10,50,10.00
2015,03,06,10,51,10.10
2015,03,06,10,52,10.10
2015,03,06,10,53,10.10
2015,03,06,10,54,10.20
2015,03,06,10,55,10.20
2015,03,06,10,56,10.30
2015,03,06,10,57,10.30
2015,03,06,10,58,10.40
2015,03,06,10,59,10.40
2015,03,06,11,00,10.40
2015,03,06,11,01,10.50
2015,03,06,11,02,10.60
2015,03,06,11,03,10.60
2015,03,06,11,04,10.70
2015,03,06,11,05,10.70
2015,03,06,11,06,10.70
2015,03,06,11,07,10.80
2015,03,06,11,08,10.80
2015,03,06,11,09,10.90
2015,03,06,11,10,10.90
2015,03,06,11,11,11.00
2015,03,06,11,12,11.10
2015,03,06,11,13,11.10
2015,03,06,11,14,11.10
2015,03,06,11,15,11.10
2015,03,06,11,16,11.20
2015,03,06,11,17,11.20
2015,03,06,11,18,11.30
2015,03,06,11,19,11.30
2015,03,06,11,20,11.30
2015,03,06,11,21,11.30
2015,03,06,11,22,11.40
2015,03,06,11,23,11.40
2015,03,06,11,24,11.40
2015,03,06,11,25,11.40
2015,03,06,11,26,11.30
2015,03,06,11,27,11.30
2015,03,06,11,28,11.30
2015,03,06,11,29,11.40
2015,03,06,11,30,11.30
2015,03,06,11,31,11.30
2015,03,06,11,32,11.30
2015,03,06,11,33,11.30
2015,03,06,11,34,11.30
2015,03,06,11,35,11.20
2015,03,06,11,36,11.20
2015,03,06,11,37,11.20
2015,03,06,11,38,11.20
2015,03,06,11,39,11.20
2015,03,06,11,40,11.20
2015,03,06,11,41,11.30
2015,03,06,11,42,11.30
2015,03,06,11,43,11.30
2015,03,06,11,44,11.30
2015,03,06,11,45,11.40
2015,03,06,11,46,11.40
2015,03,06,11,47,11.40
2015,03,06,11,48,11.40
2015,03,06,11,49,11.40
2015,03,06,11,50,11.40
2015,03,06,11,51,11.50
2015,03,06,11,52,11.60
2015,03,06,11,53,11.60
2015,03,06,11,54,11.60
2015,03,06,11,55,11.60
2015,03,06,11,56,11.60
2015,03,06,11,57,11.60
2015,03,06,11,58,11.60
2015,03,06,11,59,11.60
2015,03,06,12,00,11.60
2015,03,06,12,01,11.60
2015,03,06,12,02,11.60
2015,03,06,12,03,11.70
2015,03,06,12,04,11.80
2015,03,06,12,05,11.80
2015,03,06,12,06,11.80
2015,03,06,12,07,11.80
2015,03,06,12,08,11.80
2015,03,06,12,09,11.90
2015,03,06,12,10,11.90
2015,03,06,12,11,11.80
2015,03,06,12,12,11.80
2015,03,06,12,13,11.70
2015,03,06,12,14,11.60
2015,03,06,12,15,11.60
2015,03,06,12,16,11.60
2015,03,06,12,17,11.70
2015,03,06,12,18,11.70
2015,03,06,12,19,11.80
2015,03,06,12,20,11.70
2015,03,06,12,21,11.70
2015,03,06,12,22,11.60
2015,03,06,12,23,11.60
2015,03,06,12,24,11.60
2015,03,06,12,25,11.70
2015,03,06,12,26,11.70
2015,03,06,12,27,11.80
2015,03,06,12,28,11.80
2015,03,06,12,29,11.80
2015,03,06,12,30,11.90
2015,03,06,12,31,11.90
2015,03,06,12,32,11.90
2015,03,06,12,33,11.90
2015,03,06,12,34,11.90
2015,03,06,12,35,11.90
2015,03,06,12,36,12.00
2015,03,06,12,37,12.00
2015,03,06,12,38,12.00
2015,03,06,12,39,12.00
2015,03,06,12,40,12.00
2015,03,06,12,41,12.10
2015,03,06,12,42,12.10
2015,03,06,12,43,12.20
2015,03,06,12,44,12.20
2015,03,06,12,45,12.20
2015,03,06,12,46,12.20
2015,03,06,12,47,12.20
2015,03,06,12,48,12.20
2015,03,06,12,49,12.20
2015,03,06,12,50,12.30
2015,03,06,12,51,12.30
2015,03,06,12,52,12.40
2015,03,06,12,53,12.40
2015,03,06,12,54,12.50
2015,03,06,12,55,12.50
2015,03,06,12,56,12.60
2015,03,06,12,57,12.60
2015,03,06,12,58,12.60
2015,03,06,12,59,12.60
2015,03,06,13,00,12.60
2015,03,06,13,01,12.60
2015,03,06,13,02,12.60
2015,03,06,13,03,12.60
2015,03,06,13,04,12.60
2015,03,06,13,05,12.50
2015,03,06,13,06,12.40
2015,03,06,13,07,12.30
2015,03,06,13,08,12.30
2015,03,06,13,09,12.10
2015,03,06,13,10,12.00
2015,03,06,13,11,12.00
2015,03,06,13,12,12.00
2015,03,06,13,13,11.90
2015,03,06,13,14,11.90
2015,03,06,13,15,11.90
2015,03,06,13,16,11.90
2015,03,06,13,17,11.90
2015,03,06,13,18,11.80
2015,03,06,13,19,11.80
2015,03,06,13,20,11.70
2015,03,06,13,21,11.80
2015,03,06,13,22,11.80
2015,03,06,13,23,11.90
2015,03,06,13,24,11.90
2015,03,06,13,25,11.90
2015,03,06,13,26,11.90
2015,03,06,13,27,12.00
2015,03,06,13,28,12.00
2015,03,06,13,29,12.10
2015,03,06,13,30,12.10
2015,03,06,13,31,12.20
2015,03,06,13,32,12.20
2015,03,06,13,33,12.20
2015,03,06,13,34,12.10
2015,03,06,13,35,12.10
2015,03,06,13,36,12.00
2015,03,06,13,37,12.00
2015,03,06,13,38,12.10
2015,03,06,13,39,12.10
2015,03,06,13,40,12.10
2015,03,06,13,41,12.10
2015,03,06,13,42,12.10
2015,03,06,13,43,12.10
2015,03,06,13,44,12.10
2015,03,06,13,45,12.00
2015,03,06,13,46,12.00
2015,03,06,13,47,11.90
2015,03,06,13,48,11.80
2015,03,06,13,49,11.80
2015,03,06,13,50,11.80
2015,03,06,13,51,11.80
2015,03,06,13,52,11.80
2015,03,06,13,53,11.80
2015,03,06,13,54,11.90
2015,03,06,13,55,11.90
2015,03,06,13,56,11.90
2015,03,06,13,57,11.80
2015,03,06,13,58,11.80
2015,03,06,13,59,11.90
2015,03,06,14,00,12.00
2015,03,06,14,01,12.10
2015,03,06,14,02,12.20
2015,03,06,14,03,12.20
2015,03,06,14,04,12.30
2015,03,06,14,05,12.30
2015,03,06,14,06,12.40
2015,03,06,14,07,12.40
2015,03,06,14,08,12.50
2015,03,06,14,09,12.50
2015,03,06,14,10,12.50
2015,03,06,14,11,12.50
2015,03,06,14,12,12.50
2015,03,06,14,13,12.50
2015,03,06,14,14,12.60
2015,03,06,14,15,12.60
2015,03,06,14,16,12.50
2015,03,06,14,17,12.50
2015,03,06,14,18,12.50
2015,03,06,14,19,12.60
2015,03,06,14,20,12.70
2015,03,06,14,21,12.80
2015,03,06,14,22,12.90
2015,03,06,14,23,13.00
2015,03,06,14,24,13.20
2015,03,06,14,25,13.30
2015,03,06,14,26,13.30
2015,03,06,14,27,13.40
2015,03,06,14,28,13.40
2015,03,06,14,29,13.40
2015,03,06,14,30,13.40
2015,03,06,14,31,13.30
2015,03,06,14,32,13.30
2015,03,06,14,33,13.30
2015,03,06,14,34,13.20
2015,03,06,14,35,13.10
2015,03,06,14,36,13.00
2015,03,06,14,37,12.80
2015,03,06,14,38,12.70
2015,03,06,14,39,12.50
2015,03,06,14,40,12.50
2015,03,06,14,41,12.40
2015,03,06,14,42,12.30
2015,03,06,14,43,12.20
2015,03,06,14,44,12.10
2015,03,06,14,45,12.10
2015,03,06,14,46,12.00
2015,03,06,14,47,11.90
2015,03,06,14,48,11.80
2015,03,06,14,49,11.80
2015,03,06,14,50,11.80
2015,03,06,14,51,11.80
2015,03,06,14,52,11.80
2015,03,06,14,53,11.80
2015,03,06,14,54,11.80
2015,03,06,14,55,11.80
2015,03,06,14,56,11.90
2015,03,06,14,57,12.00
2015,03,06,14,58,12.00
2015,03,06,14,59,12.10
2015,03,06,15,00,12.10
2015,03,06,15,01,12.20
2015,03,06,15,02,12.20
2015,03,06,15,03,12.30
2015,03,06,15,04,12.30
2015,03,06,15,05,12.30
2015,03,06,15,06,12.20
2015,03,06,15,07,12.20
2015,03,06,15,08,12.20
2015,03,06,15,09,12.30
2015,03,06,15,10,12.30
2015,03,06,15,11,12.30
2015,03,06,15,12,12.40
2015,03,06,15,13,12.50
2015,03,06,15,14,12.50
2015,03,06,15,15,12.60
2015,03,06,15,16,12.70
2015,03,06,15,17,12.70
2015,03,06,15,18,12.80
2015,03,06,15,19,12.80
2015,03,06,15,20,12.80
2015,03,06,15,21,12.90
2015,03,06,15,22,13.00
2015,03,06,15,23,13.00
2015,03,06,15,24,13.00
2015,03,06,15,25,13.00
2015,03,06,15,26,13.00
2015,03,06,15,27,13.10
2015,03,06,15,28,13.10
2015,03,06,15,29,13.20
2015,03,06,15,30,13.30
2015,03,06,15,31,13.30
2015,03,06,15,32,13.30
2015,03,06,15,33,13.20
2015,03,06,15,34,13.20
2015,03,06,15,35,13.20
2015,03,06,15,36,13.20
2015,03,06,15,37,13.20
2015,03,06,15,38,13.20
2015,03,06,15,39,13.20
2015,03,06,15,40,13.20
2015,03,06,15,41,13.20
2015,03,06,15,42,13.20
2015,03,06,15,43,13.00
2015,03,06,15,44,12.90
2015,03,06,15,45,12.80
2015,03,06,15,46,12.70
2015,03,06,15,47,12.70
2015,03,06,15,48,12.60
2015,03,06,15,49,12.50
2015,03,06,15,50,12.40
2015,03,06,15,51,12.30
2015,03,06,15,52,12.30
2015,03,06,15,53,12.20
2015,03,06,15,54,12.20
2015,03,06,15,55,12.20
2015,03,06,15,56,12.20
2015,03,06,15,57,12.20
2015,03,06,15,58,12.30
2015,03,06,15,59,12.30
2015,03,06,16,00,12.30
2015,03,06,16,01,12.40
2015,03,06,16,02,12.40
2015,03,06,16,03,12.50
2015,03,06,16,04,12.50
2015,03,06,16,05,12.60
2015,03,06,16,06,12.60
2015,03,06,16,07,12.60
2015,03,06,16,08,12.70
2015,03,06,16,09,12.80
2015,03,06,16,10,12.80
2015,03,06,16,11,12.80
2015,03,06,16,12,12.80
2015,03,06,16,13,12.70
2015,03,06,16,14,12.70
2015,03,06,16,15,12.70
2015,03,06,16,16,12.70
2015,03,06,16,17,12.70
2015,03,06,16,18,12.70
2015,03,06,16,19,12.70
2015,03,06,16,20,12.60
2015,03,06,16,21,12.60
2015,03,06,16,22,12.50
2015,03,06,16,23,12.50
2015,03,06,16,24,12.40
2015,03,06,16,25,12.30
2015,03,06,16,26,12.20
2015,03,06,16,27,12.10
2015,03,06,16,28,12.00
2015,03,06,16,29,11.90
2015,03,06,16,30,11.90
2015,03,06,16,31,11.80
2015,03,06,16,32,11.80
2015,03,06,16,33,11.80
2015,03,06,16,34,11.70
2015,03,06,16,35,11.70
2015,03,06,16,36,11.60
2015,03,06,16,37,11.50
2015,03,06,16,38,11.40
2015,03,06,16,39,11.30
2015,03,06,16,40,11.20
2015,03,06,16,41,11.20
2015,03,06,16,42,11.10
2015,03,06,16,43,11.10
2015,03,06,16,44,10.90
2015,03,06,16,45,10.90
2015,03,06,16,46,10.90
2015,03,06,16,47,10.90
2015,03,06,16,48,10.80
2015,03,06,16,49,10.80
2015,03,06,16,50,10.80
2015,03,06,16,51,10.80
2015,03,06,16,52,10.80
2015,03,06,16,53,10.70
2015,03,06,16,54,10.70
2015,03,06,16,55,10.70
2015,03,06,16,56,10.60
2015,03,06,16,57,10.60
2015,03,06,16,58,10.60
2015,03,06,16,59,10.60
2015,03,06,17,00,10.60
2015,03,06,17,01,10.60
2015,03,06,17,02,10.60
2015,03,06,17,03,10.60
2015,03,06,17,04,10.60
2015,03,06,17,05,10.50
2015,03,06,17,06,10.40
2015,03,06,17,07,10.40
2015,03,06,17,08,10.40
2015,03,06,17,09,10.40
2015,03,06,17,10,10.40
2015,03,06,17,11,10.40
2015,03,06,17,12,10.40
2015,03,06,17,13,10.30
2015,03,06,17,14,10.30
2015,03,06,17,15,10.30
2015,03,06,17,16,10.30
2015,03,06,17,17,10.30
2015,03,06,17,18,10.30
2015,03,06,17,19,10.30
2015,03,06,17,20,10.20
2015,03,06,17,21,10.20
2015,03,06,17,22,10.20
2015,03,06,17,23,10.20
2015,03,06,17,24,10.20
2015,03,06,17,25,10.10
2015,03,06,17,26,10.10
2015,03,06,17,27,10.10
2015,03,06,17,28,10.10
2015,03,06,17,29,10.10
2015,03,06,17,30,10.10
2015,03,06,17,31,10.10
2015,03,06,17,32,10.10
2015,03,06,17,33,10.00
2015,03,06,17,34,9.90
2015,03,06,17,35,9.90
2015,03,06,17,36,9.90
2015,03,06,17,37,9.90
2015,03,06,17,38,9.90
2015,03,06,17,39,9.80
2015,03,06,17,40,9.80
2015,03,06,17,41,9.80
2015,03,06,17,42,9.70
2015,03,06,17,43,9.70
2015,03,06,17,44,9.70
2015,03,06,17,45,9.70
2015,03,06,17,46,9.70
2015,03,06,17,47,9.60
2015,03,06,17,48,9.60
2015,03,06,17,49,9.60
2015,03,06,17,50,9.50
2015,03,06,17,51,9.50
2015,03,06,17,52,9.50
2015,03,06,17,53,9.40
2015,03,06,17,54,9.40
2015,03,06,17,55,9.40
2015,03,06,17,56,9.30
2015,03,06,17,57,9.30
2015,03,06,17,58,9.30
2015,03,06,17,59,9.30
2015,03,06,18,00,9.20
2015,03,06,18,01,9.20
2015,03,06,18,02,9.20
2015,03,06,18,03,9.20
2015,03,06,18,04,9.20
2015,03,06,18,05,9.10
2015,03,06,18,06,9.10
2015,03,06,18,07,9.10
2015,03,06,18,08,9.00
2015,03,06,18,09,9.00
2015,03,06,18,10,8.90
2015,03,06,18,11,8.90
2015,03,06,18,12,8.90
2015,03,06,18,13,8.80
2015,03,06,18,14,8.80
2015,03,06,18,15,8.70
2015,03,06,18,16,8.70
2015,03,06,18,17,8.70
2015,03,06,18,18,8.70
2015,03,06,18,19,8.60
2015,03,06,18,20,8.60
2015,03,06,18,21,8.50
2015,03,06,18,22,8.50
2015,03,06,18,23,8.40
2015,03,06,18,24,8.40
2015,03,06,18,25,8.40
2015,03,06,18,26,8.30
2015,03,06,18,27,8.30
2015,03,06,18,28,8.30
2015,03,06,18,29,8.30
2015,03,06,18,30,8.30
2015,03,06,18,31,8.30
2015,03,06,18,32,8.30
2015,03,06,18,33,8.30
2015,03,06,18,34,8.30
2015,03,06,18,35,8.30
2015,03,06,18,36,8.30
2015,03,06,18,37,8.30
2015,03,06,18,38,8.30
